SL-14 DEB, 45302

Orbit data source: Space-Track

SL-14 DEB, 45302 is space debris in LEO originally from a launch on Thu, 15 Aug 1991 UTC launched from the Plesetsk Missile And Space Complex (PKMTR). Debris objects in space refer to the collection of defunct objects orbiting the Earth. Examples of debris include non-operational satellites, rocket bodies, and fragments generated from explosions, collisions, or faulty payload assembly.

Loading next visibility...
SL-14 DEB details
Identifier
45302, 1991-056AQ
Orbit
LEO
Last TLE update2 days ago
Origin
Flag of CISRosgidromet (CIS)
ManufacturerUnknown
MissionSpacecraft
Bus & MotorUnknown
MassUnknown
Launch date (UTC)
1991-08-15 (33 years ago)
Launch vehicleUnknown
Launch site
Plesetsk Missile And Space Complex (PKMTR)
Object type
Payload
Rocket body
Debris
Shape & HBRUnknown
Radar Cross SectionSmall (<0.1 m²)

Expand to show TLE details & history

TLE from 2 days ago
0 SL-14 DEB
1 45302U 91056AQ  24338.45917945  .00018754  00000-0  25627-1 0  9997
2 45302  82.6042 134.3030 0154291 263.7961  94.5587 13.53960170234741
Epoch: 2024-12-03T11:01Z
Definitive object data (Epoch: 2024-12-03T11:01:13.104Z)
Latitude-0.00005°
Longitude-103.76999°
Altitude1,071.461 km
Speed7.311 km/s
True Right ascension08h 57m 12s
True Declination0° 00' 00"
Sunlit
Object was in daylight at TLE epoch
Visualization TLE readout
Latitude55.70367°
Longitude-94.30312°
Altitude1,172.539 km
Speed7.22 km/s
Apparent Right ascension15h 21m 47s
Apparent Declination38° 43' 37"
Sunlit
Object is in daylight
Visualization observer readout
Local Sidereal Time07:23:02
Azimuth42.962° NE
Elevation6.032°
Doppler factor1
Orbital elements
Apogee altitude1,169.599 km
Perigee altitude940.229 km
Semi-major axis7,433.051 km
Eccentricity0.0154291
Inclination82.6042°
RAAN134.303°
Arg. of periapsis263.7961°
True anomaly96.31818°
Mean anomaly94.5587°
Eccentric anomaly95.43874°
Mean motion3.38682 °/min
BSTAR0.025627
Orbital period106.29 mins
Loading maneuver chart data...
Loading historical data...
Loading historical data...
Loading historical data...
Loading historical data...
Loading historical data...
Loading historical data...
Loading historical data...

SL-14 DEB Visibility forecast

Observer location: undefined°, undefined

Span
Click to sort rows by Start time (UTC) header in descending order
Start Az.
Max El. time (UTC)
Max El. Az.
Max El.
End time (UTC)
End Az.
13 mins2024-12-05 10:59:48.889Z178.198° S2024-12-05 11:05:48.889Z131.453° SE43.689°2024-12-05 11:12:48.889Z11.186° NNE
8 mins2024-12-05 12:50:48.889Z259.851° W2024-12-05 12:53:48.889Z288.602° WNW18.082°2024-12-05 12:58:48.889Z334.711° NNW
4 mins2024-12-05 20:24:48.889Z47.346° ENE2024-12-05 20:26:48.889Z65.153° ENE12.231°2024-12-05 20:28:48.889Z82.657° E
11 mins2024-12-05 22:09:48.889Z357.237° N2024-12-05 22:14:48.889Z73.665° E44.329°2024-12-05 22:20:48.889Z167.756° S
6 mins2024-12-05 23:58:48.889Z303.027° NW2024-12-06 00:00:48.889Z283.655° WNW16.062°2024-12-06 00:04:48.889Z246.047° WSW
|